This demonstration page uses our WeatherBlox Daily Observations layout. Learn more.

Left ArrowRight Arrow

Hourly Observations for May 11, 2020

Temp ( °F °C ) Dew Point ( °F °C ) Humidity (%) Winds ( mph kmh ) Pressure ( in mb ) Visibility ( mi km ) Precip ( " mm )
12:30 am 00:30 Cloudy 44 6.7 36 2.2 73 73 W 16 26 30.09 1019 10 16.0934 N/A
12:53 am 00:53 Cloudy 42 5.6 33 0.6 71 71 W 16 26 30.09 1019 10 16.0934 0.001 0.001
1:53 am 01:53 Cloudy 41 5 31 -0.6 67 67 NW 17 28 30.11 1020 10 16.0934 0.001 0.001
2:53 am 02:53 Cloudy 41 5 31 -0.6 67 67 NW 16 26 30.12 1020 10 16.0934 N/A
3:53 am 03:53 Cloudy 40 4.4 31 -0.6 70 70 WNW 18 30 30.14 1021 10 16.0934 N/A
4:46 am 04:46 Cloudy 39 3.9 31 -0.6 73 73 WNW 10 17 30.16 1021 10 16.0934 N/A
4:53 am 04:53 Cloudy 39 3.9 31 -0.6 73 73 W 10 17 30.15 1021 10 16.0934 N/A
5:53 am 05:53 Cloudy 39 3.9 31 -0.6 73 73 WNW 12 19 30.16 1022 10 16.0934 N/A
6:53 am 06:53 Cloudy 40 4.4 32 undefined 73 73 W 7 11 30.18 1022 10 16.0934 N/A
7:53 am 07:53 Cloudy 41 5 32 undefined 70 70 W 8 13 30.2 1023 10 16.0934 N/A
8:53 am 08:53 Cloudy 41 5 33 0.6 73 73 W 9 15 30.21 1023 10 16.0934 N/A
9:53 am 09:53 Cloudy 42 5.6 34 1.1 73 73 WNW 10 17 30.22 1023 10 16.0934 N/A
10:11 am 10:11 Cloudy 43 6.1 34 1.1 71 71 WSW 8 13 30.23 1024 10 16.0934 N/A
10:53 am 10:53 Cloudy 44 6.7 36 2.2 73 73 VRB 6 9 30.22 1023 10 16.0934 0.001 0.001
11:53 am 11:53 Cloudy 46 7.8 34 1.1 63 63 W 10 17 30.22 1024 10 16.0934 N/A
12:53 pm 12:53 Cloudy 47 8.3 31 -0.6 54 54 WNW 17 28 30.22 1024 10 16.0934 N/A
1:53 pm 13:53 Cloudy 47 8.3 32 undefined 56 56 W 12 19 30.22 1023 10 16.0934 N/A
2:53 pm 14:53 Cloudy 46 7.8 33 0.6 61 61 WNW 14 22 30.23 1024 10 16.0934 0.001 0.001
3:53 pm 15:53 Cloudy 47 8.3 34 1.1 61 61 WNW 9 15 30.22 1024 10 16.0934 N/A
4:53 pm 16:53 Cloudy 47 8.3 33 0.6 59 59 NW 9 15 30.22 1023 10 16.0934 N/A
5:53 pm 17:53 Cloudy 48 8.9 33 0.6 56 56 WNW 8 13 30.23 1024 10 16.0934 N/A
6:53 pm 18:53 Cloudy 47 8.3 33 0.6 59 59 W 6 9 30.23 1024 10 16.0934 N/A
7:53 pm 19:53 Cloudy 46 7.8 36 2.2 68 68 NW 3 6 30.23 1024 10 16.0934 N/A
8:53 pm 20:53 Cloudy 45 7.2 36 2.2 71 71 NW 3 6 30.23 1024 10 16.0934 N/A
9:53 pm 21:53 Cloudy 44 6.7 37 2.8 76 76 N N/A 30.23 1024 10 16.0934 N/A
10:53 pm 22:53 Cloudy 44 6.7 39 3.9 83 83 N N/A 30.24 1024 10 16.0934 N/A
11:53 pm 23:53 Cloudy 44 6.7 39 3.9 83 83 N N/A 30.24 1024 10 16.0934 N/A

Powered by AerisWeather